Tracking 30986 objects as of 9-Jul-2025
HD Live streaming from Space Station
objects crossing your sky now

CZ-2D R/B

Track CZ-2D R/B now!
10-day predictions


NORAD ID: 58074
Int'l Code: 2023-159B
Perigee: 731.2 km
Apogee: 872.4 km
Inclination: 98.5 °
Period: 100.8 minutes
Semi major axis: 7172 km
RCS: Unknown
Launch date: October 15, 2023
Source: People's Republic of China (PRC)
Launch site: Jiuquan Satellite Launch Center, China (JSC)

Note: This is a ROCKET BODY
Your satellite tracking list
Your tracking list is empty




NASA's NSSDC Master Catalog

Two Line Element Set (TLE):
1 58074U 23159B   25190.04048059  .00000060  00000-0  38502-4 0  9999
2 58074  98.4712 207.5628 0098426 219.8331 139.5598 14.29127098 90397
Source of the keplerian elements: AFSPC